CW1203 Weather Reports


Display with metric or nautical units.
time (UTC)temp
F
wind
direction
speed
MPH
gust
MPH
rain 1hr
in
rain 24hr
in
rain mn
in
humidity
%
barometer
mb
20260505100019 53 345 0.0 0.0 0.00 0.01 0.00 70 1013.4
20260505094504 55 31 0.0 0.0 0.00 0.01 0.00 67 1013.3
20260505093105 56 266 0.0 0.0 0.00 0.01 0.00 62 1013.3
20260505091557 57 278 0.0 4.0 0.00 0.01 0.00 59 1013.4
20260505090100 58 335 0.0 1.0 0.00 0.01 0.00 57 1013.2
20260505084605 58 267 0.0 5.0 0.00 0.01 0.00 56 1013.1
20260505083055 58 251 0.0 5.0 0.00 0.01 0.00 56 1012.8
20260505081609 58 271 0.0 6.0 0.00 0.01 0.00 56 1012.6
20260505080100 58 252 0.0 5.0 0.00 0.01 0.00 56 1012.5
20260505074552 58 231 0.0 3.0 0.00 0.01 0.00 56 1012.5
20260505073050 58 312 0.0 4.0 0.00 0.01 0.00 57 1012.8
20260505071554 59 245 1.0 6.0 0.00 0.01 0.00 58 1012.9
20260505070046 58 277 1.0 10.0 0.00 0.01 0.00 59 1013.0
20260505064542 58 333 0.0 5.0 0.00 0.01 0.00 62 1013.1
20260505063047 57 211 0.0 1.0 0.00 0.01 0.00 63 1013.2
20260505061541 57 8 0.0 6.0 0.00 0.01 0.00 65 1013.4
20260505060036 57 315 0.0 1.0 0.00 0.01 0.00 65 1013.5
20260505054544 58 301 0.0 3.0 0.00 0.01 0.00 64 1013.5
20260505053039 58 214 0.0 2.0 0.00 0.01 0.00 64 1013.5
20260505051539 58 220 0.0 2.0 0.00 0.01 0.00 64 1013.5
20260505041524 57 139 0.0 0.0 0.00 0.01 0.00 64 1013.8
20260505040020 58 139 0.0 0.0 0.00 0.01 0.00 63 1013.8
20260505034519 57 219 0.0 0.0 0.00 0.01 0.01 63 1013.9
20260505033019 58 219 0.0 0.0 0.00 0.01 0.01 62 1014.0
20260505031521 58 218 0.0 0.0 0.00 0.01 0.01 61 1014.1
20260505030018 58 203 0.0 0.0 0.00 0.01 0.01 59 1014.0
20260505024517 59 203 0.0 0.0 0.00 0.01 0.01 58 1014.0
20260505023020 60 203 0.0 0.0 0.00 0.01 0.01 57 1014.1
20260505021516 61 58 0.0 0.0 0.00 0.01 0.01 56 1013.9
20260505020015 61 354 0.0 1.0 0.00 0.01 0.01 55 1013.7
20260505014515 61 68 0.0 0.0 0.00 0.01 0.01 55 1013.6
20260505013014 62 84 0.0 2.0 0.00 0.01 0.01 53 1013.5
20260505011520 62 254 0.0 1.0 0.00 0.01 0.01 52 1013.3
20260505010025 63 108 0.0 1.0 0.00 0.01 0.01 51 1013.2
20260505004513 63 271 0.0 1.0 0.00 0.01 0.01 50 1013.1
20260505003012 64 288 0.0 2.0 0.00 0.01 0.01 49 1013.1
20260505001511 64 244 0.0 3.0 0.00 0.01 0.01 48 1013.0
20260505000016 66 13 0.0 0.0 0.00 0.01 0.01 46 1013.0
20260504234510 70 330 0.0 0.0 0.00 0.01 0.01 42 1012.8
20260504233009 70 71 0.0 5.0 0.00 0.01 0.01 43 1012.8
20260504231508 71 240 0.0 1.0 0.01 0.01 0.01 41 1012.7
20260504230007 73 259 0.0 5.0 0.01 0.01 0.01 42 1012.6
20260504224506 73 188 0.0 3.0 0.01 0.01 0.01 39 1012.7
20260504223005 73 302 0.0 7.0 0.01 0.01 0.01 40 1012.7
20260504221515 73 301 1.0 7.0 0.00 0.00 0.00 38 1012.8
20260504220004 73 23 0.0 7.0 0.00 0.00 0.00 38 1012.8
20260504214503 74 227 1.0 4.0 0.00 0.00 0.00 37 1012.8
20260504213001 74 283 0.0 6.0 0.00 0.00 0.00 38 1012.8
20260504211600 75 221 0.0 4.0 0.00 0.00 0.00 37 1012.8
20260504210100 75 266 0.0 3.0 0.00 0.00 0.00 36 1012.9
20260504204605 75 276 0.0 5.0 0.00 0.00 0.00 35 1013.1
20260504203054 74 291 0.0 4.0 0.00 0.00 0.00 35 1013.1
20260504201554 74 56 0.0 2.0 0.00 0.00 0.00 32 1013.3
20260504200050 73 146 0.0 5.0 0.00 0.00 0.00 33 1013.5
20260504194555 73 232 0.0 5.0 0.00 0.00 0.00 32 1013.7
20260504193048 73 37 0.0 3.0 0.00 0.00 0.00 32 1013.9
20260504191545 73 39 0.0 2.0 0.00 0.00 0.00 36 1014.1
20260504190044 72 21 0.0 4.0 0.00 0.00 0.00 38 1014.1
20260504184542 72 296 0.0 7.0 0.00 0.00 0.00 37 1014.3
20260504183042 73 127 0.0 3.0 0.00 0.00 0.00 38 1014.4
20260504181539 72 258 0.0 4.0 0.00 0.00 0.00 36 1014.5
20260504180045 72 251 0.0 3.0 0.00 0.00 0.00 36 1014.7
20260504174535 70 283 0.0 4.0 0.00 0.00 0.00 29 1015.0
20260504173035 70 327 0.0 4.0 0.00 0.00 0.00 30 1015.2
20260504171534 71 304 0.0 1.0 0.00 0.00 0.00 34 1015.2